Location: Cointrin
(46.2167°N, 6.1167°E)
Time: 00:56:44
(UTC+00:00)

ISS - Visible Passes

Search period start: 25 January 2026 00:00
Search period end: 04 February 2026 00:00
Orbit: 413 x 423 km, 51.6° (Epoch: 23 January)

Date Brightness Start Highest point End Pass type
(mag) Time Alt. Az. Time Alt. Az. Time Alt. Az.
25 Jan -3.4 17:42:44 10° WNW 17:45:59 48° NNE 17:47:34 26° E visible
25 Jan -0.8 19:19:35 10° WNW 19:20:30 16° W 19:20:30 16° W visible
26 Jan -3.4 18:31:24 10° WNW 18:34:42 58° SSW 18:34:44 58° SSW visible
27 Jan -3.8 17:43:15 10° WNW 17:46:37 89° SSW 17:49:06 17° ESE visible
27 Jan -0.7 19:20:55 10° W 19:22:03 14° WSW 19:22:03 14° WSW visible
28 Jan -1.6 18:32:14 10° W 18:35:00 24° SW 18:36:35 17° S visible
29 Jan -2.3 17:43:49 10° WNW 17:46:57 38° SW 17:50:04 10° SSE visible
31 Jan -0.8 17:44:49 10° W 17:46:57 16° SW 17:49:05 10° S visible
